Regional Weather Roundup
Issued by NWS Grand Forks, ND

Home | Current Version | Previous Version | Text Only | Print | Product List | Glossary Off
Versions: 1 2 3 4 5 6 7 8 9 10 11 12 13 14 15 16 17 18 19 20 21 22 23 24 25 26 27 28 29 30 31 32 33 34 35 36 37 38 39 40 41 42 43 44 45 46 47 48 49 50

000
ASUS43 KFGF 051010
RWRFGF
PRAIRIE TO PINES  WEATHER ROUNDUP
NATIONAL WEATHER SERVICE EASTERN NORTH DAKOTA/GRAND FORKS ND
500 AM CDT SAT SEP 05 2015

 **SATELLITE DATA USED TO AUGMENT SKY COVER AT AUTOMATED STATIONS**
 *****  WEATHER ACROSS EASTERN NORTH DAKOTA  *****

CITY           SKY/WX    TMP DP  RH WIND       PRES   REMARKS
GRAND FORKS    CLOUDY    64  64 100 N12       29.87F FOG
GRAND FRKS AFB FOG       63  63 100 N12       29.89S VSB 3/4
GRAND FRKS NWS   N/A     64 N/A N/A N7          N/A
DEVILS LAKE    CLOUDY    63  55  77 NE8       29.90S
FARGO          PTCLDY    69  67  93 N6        29.84S
WAHPETON ARPT  MOSUNNY   70  66  88 E6        29.84S
$$

 ***** WEATHER ACROSS CENTRAL AND WESTERN NORTH DAKOTA  *****

CITY           SKY/WX    TMP DP  RH WIND       PRES   REMARKS
BISMARCK       FOG       69  69 100 NW8       29.85R VSB 3/4
MINOT          CLOUDY    61  58  90 CALM      29.93R
JAMESTOWN      FOG       68  67  96 NE6       29.85S VSB 1/4
MINOT AFB      CLOUDY    59  59 100 N1        29.92R
GARRISON         N/A     63  61  93 N12       29.91R
WILLISTON      CLOUDY    59  57  93 N15       29.87F
DICKINSON        N/A     62  60  93 NE13      29.84
HETTINGER      MOCLDY    64  59  83 NE18G24   29.84F
$$

 *****  OTHER AIRPORT OBSERVATIONS IN OUR AREA  *****

CITY           SKY/WX    TMP DP  RH WIND       PRES   REMARKS
WALHALLA       FAIR      59  59 100 MISG      29.93F FOG
GRAFTON AIRPOR FOG       61  61 100 N8        29.92S VSB 1/2
VALLEY CITY AR FOG       66  66 100 NE8       29.86S VSB<1/4
CANDO          NOT AVBL
CAVALIER APRT  FOG       61  61 100 N9        29.92F VSB 1
GWINNER          N/A     66  66 100 CALM      29.84S
SHEYENNE NWR     N/A     67  67  99 E5        29.95S
ROLLA          CLOUDY    55  55 100 N10       29.95F FOG
 ***** THE ABOVE OBSERVATIONS ARE NON NWS ARE NOT QUALITY
       CONTROLLED AND MAY MIS-REPORT RAIN FOR SNOW...
$$

  *****  WEATHER ACROSS NORTHERN MINNESOTA  *****

CITY           SKY/WX    TMP DP  RH WIND       PRES   REMARKS
FLAG ISLAND    CLEAR     68  66  94 CALM      29.90S
WARROAD        FOG       63  57  82 CALM      29.91F VSB 1/2
ROSEAU         HAZE      61  55  82 CALM      29.91S VSB 1/2
HALLOCK        CLOUDY    63  63 100 CALM      29.92R FOG
THF RVR FALLS  MOCLDY    68  66  94 NE9       29.89S
BAUDETTE       CLOUDY    70  68  93 SE5       29.91F
WASKISH        CLOUDY    68  66  94 E8        29.92S
CROOKSTON      PTCLDY    70  66  88 N3        29.88S
STEPHEN NDAWN    N/A     64  64 100 N9          N/A
GREENBUSH NDAW   N/A     64  64 100 NW2         N/A
$$
  *****  WEATHER ACROSS CENTRAL AND WEST MINNESOTA  *****

CITY           SKY/WX    TMP DP  RH WIND       PRES   REMARKS
FOSSTON        CLEAR     66  64  94 CALM      29.90R
BEMIDJI        PTCLDY    69  69  99 E7        29.90S
PARK RAPIDS    CLOUDY    73  69  87 SE6       29.90S
ELBOW LAKE     FAIR      73  71  93 E3        29.86S
WADENA         PTCLDY    72  68  88 CALM      29.90R
DETROIT LAKES  CLOUDY    72  70  94 SE3       29.90S
MOORHEAD       CLEAR     70  68  94 SE3       29.85S
FERGUS FALLS   PTCLDY    73  72  94 SE6       29.84F
MORRIS MN      PTCLDY    72  72 100 SE6       29.84S FOG
STAPLES        MOCLDY    73  66  78 S9        29.90S
$$
  *****  WEATHER ELSEWHERE ACROSS MINNESOTA  *****

CITY           SKY/WX    TMP DP  RH WIND       PRES   REMARKS
DULUTH         CLOUDY    67  64  90 SE8       30.01S
INTRNTL FALLS  LGT RAIN  67  66  97 E6        29.94F
ELY            CLOUDY    64  63  94 CALM      29.99R
CLOQUET        CLOUDY    66  63  88 E5        30.00R
WHEATON        CLEAR     66  66 100 E6        29.85S FOG
BRAINERD       CLOUDY    71  68  90 S10       29.92S
HIBBING        MOCLDY    67  65  93 SE9       29.98R
ALEXANDRIA     PTCLDY    72  70  93 SE3       29.90R
SAINT CLOUD    TSTM      73  71  93 S17       29.92F FOG
MINNEAPOLIS    MOCLDY    77  70  79 SE7       29.95R
$$

  *****  WEATHER ACROSS SOUTH DAKOTA  *****

CITY           SKY/WX    TMP DP  RH WIND       PRES   REMARKS
SIOUX FALLS    PTCLDY    73  67  81 S10       29.85S
BROOKINGS      PTCLDY    70  66  88 SE9       29.87S
WATERTOWN      PTCLDY    71  67  87 S9        29.84S
HURON          CLEAR     71  68  90 SE8       29.79R
SISSETON         N/A     66  66 100 NE5       29.83R
ABERDEEN       CLEAR     68  66  93 NE6       29.80S FOG
MITCHELL       CLEAR     71  68  90 SE8       29.80R
PIERRE         PTCLDY    68  66  93 E6        29.74F
MOBRIDGE       MOCLDY    71  71 100 E7        29.76F
RAPID CITY     LGT RAIN  66  61  84 N14       29.82R
$$

  *****  SOME WEATHER IN NEARBY STATES *****

CITY           SKY/WX    TMP DP  RH WIND       PRES   REMARKS
GLASGOW MT     CLOUDY    52  48  86 NE21      29.89S
GREAT FALLS MT CLOUDY    48  48 100 N10       29.92F VSB 1/4
CHEYENNE WY    CLOUDY    64  46  52 NW5       30.00R
SCOTTSBLUFF NE CLOUDY    68  58  70 W5        29.86S
OMAHA NE       MOCLDY    76  69  79 S15       29.93R
DES MOINES IA  PTCLDY    74  67  78 S6        29.99R
DAVENPORT IA   CLOUDY    73  70  90 CALM      30.04R
CHICAGO IL     PTCLDY    70  68  93 SE3       30.07R
EAU CLAIRE WI  CLOUDY    70  67  90 SE3       29.99S
LA CROSSE WI   LGT RAIN  74  72  93 SE5       30.00S
$$

  *****  SOME NATIONAL WEATHER *****

CITY           SKY/WX    TMP DP  RH WIND       PRES   REMARKS
LA GUARDIA NY  MOCLDY    68  60  75 E5        30.24R
RALEIGH NC     PTCLDY    69  67  93 NE5       30.11S FOG
ATLANTA GA     PTCLDY    72  67  84 E10       30.07R
NEW ORLEANS LA PTCLDY    77  74  90 CALM      30.00R
OKLAHOMA CITY  PTCLDY    75  68  78 S8        29.98S
ALBUQUERQUE NM CLOUDY    65  58  78 NW3       30.14S
SALT LAKE CITY MOCLDY    74  42  31 S20G28    29.82R
LOS ANGELES CA FAIR      65  59  81 E5        29.88R
BOISE ID       FAIR      48  41  76 CALM      29.93R
SEATTLE WA     FAIR      51  46  83 SE5       30.03S
$$

*** WEATHER ACROSS MANITOBA...SASKATCHEWAN AND ONTARIO ***
                ***ONTARIO***

CITY           SKY/WX    TMP DP  RH WIND       PRES   REMARKS
GERALDTON      MOCLDY    59  59 100 SE5       30.06F FOG
THUNDER BAY    MOCLDY    61  59  94 E6        30.01F
SIOUX LOOKOUT  LGT RAIN  66  64  94 S8        29.91S
TORONTO        PTCLDY    68  63  83 E3        30.15S
BIG TROUT LK   MOCLDY    64  63  94 NE7       29.92F
PICKLE LAKE    NOT AVBL
DRYDEN         CLOUDY    68  66  94 SW13G21   29.91R
KENORA         CLOUDY    66  66 100 SW6       29.91S FOG
$$
                *** MANITOBA***

CITY           SKY/WX    TMP DP  RH WIND       PRES   REMARKS
BRANDON        MOCLDY    55  54  94 NE5       29.95F
DAUPHIN        CLOUDY    55  52  88 N6        29.99S
ISLAND LAKE    LGT RAIN  59  59 100 NE8       29.94
PILOT MOUND      N/A     57  55  94 N9          N/A
THE PAS        MOCLDY    57  46  67 NE12G17   30.07R
THOMPSON       MOCLDY    52  46  82 N6        30.06F
WINNIPEG       DRZL/FOG  64  64 100 NW8       29.93R VSB 1
LYNN LAKE      CLEAR     43  43 100 N5        30.13S
CHURCHILL      CLOUDY    46  46 100 N7        30.12S
$$
                ***SASKATCHEWAN***

CITY           SKY/WX    TMP DP  RH WIND       PRES   REMARKS
ESTEVAN        TSTM      54  52  94 VRB2      29.99R
KINDERSLEY     CLOUDY    46  45  93 NE8       30.11R
LLOYDMINSTER   CLOUDY    45  43  93 N3        30.16S
PRINCE ALBERT  CLOUDY    50  45  81 N7        30.13S
REGINA         TSTM      52  48  87 NW5       30.04R
YORKTON        CLEAR     48  46  93 N8        30.02F
N. BATTLEFORD  MOCLDY    45  41  87 NE6       30.15S
LA RONGE       MOCLDY    52  45  76 N6        30.16F
SASKATOON      CLOUDY    50  45  81 NE12      30.12F
SWIFT CURRENT  CLOUDY    48 N/A N/A N9        30.05S
$$
NOTE: THESE ARE AUTOMATED STATIONS WITH LIMITED QUALITY CONTROL
      "FAIR" INDICATES FEW OR NO CLOUDS BELOW 12,000 FEET WITH NO
      SIGNIFICANT WEATHER AND/OR OBSTRUCTIONS TO VISIBILITY.
      SKY/WX - SKY CONDITION AND SIGNIFICANT WEATHER.
      TMP - AIR TEMPERATURE.    DP   - DEWPOINT TEMPERATURE.
      RH  - RELATIVE HUMIDITY.  PRES - PRESSURE.
      HX  - HEAT INDEX.         WCI  - WIND CHILL INDEX.
$



USA.gov is the U.S. government's official web portal to all federal, state and local government web resources and services.